QPF
0.01 0.01 0.02 0.02 0.03 0.01 0.01 0.02 0.02 0.03 0.05 0.08 0.08 0.07 0.08 0.06 0.06 0.05 0.05 0.04 0.03 0.02 0.02 0.02 0.02 0.02 0.02 0.02 0.02 0.01 0.00 0.00 0.00 0.00 0.00 0.00 0.00 0.00 0.00 0.00 0.00 0.00 0.00 0.00
0.01 0.01 0.01 0.01 0.02 0.01 0.01 0.02 0.02 0.02 0.03 0.07 0.07 0.06 0.06 0.06 0.05 0.04 0.04 0.03 0.02 0.02 0.02 0.02 0.02 0.01 0.02 0.01 0.01 0.01 0.00 0.00 0.00 0.00 0.00 0.00 0.00 0.00 0.00 0.00 0.00 0.00 0.00 0.00
0.01 0.01 0.00 0.01 0.01 0.02 0.02 0.02 0.02 0.02 0.03 0.06 0.07 0.05 0.07 0.07 0.04 0.04 0.03 0.02 0.02 0.01 0.01 0.01 0.01 0.01 0.02 0.02 0.01 0.01 0.01 0.00 0.00 0.00 0.00 0.00 0.00 0.00 0.00 0.00 0.00 0.00 0.00 0.00
0.01 0.00 0.00 0.01 0.01 0.01 0.02 0.01 0.01 0.02 0.04 0.07 0.06 0.07 0.06 0.06 0.05 0.04 0.02 0.01 0.02 0.01 0.01 0.01 0.00 0.01 0.01 0.02 0.02 0.01 0.01 0.00 0.00 0.00 0.00 0.00 0.00 0.00 0.00 0.00 0.00 0.00 0.00 0.00
0.01 0.01 0.01 0.01 0.01 0.01 0.02 0.02 0.02 0.02 0.05 0.05 0.04 0.05 0.05 0.05 0.04 0.03 0.01 0.01 0.02 0.01 0.01 0.01 0.00 0.00 0.01 0.02 0.02 0.01 0.01 0.00 0.00 0.00 0.00 0.01 0.00 0.00 0.00 0.00 0.00 0.00 0.00 0.00
0.01 0.01 0.01 0.01 0.01 0.01 0.02 0.04 0.04 0.03 0.04 0.04 0.04 0.04 0.03 0.03 0.03 0.02 0.01 0.00 0.01 0.01 0.01 0.01 0.00 0.00 0.01 0.02 0.02 0.01 0.01 0.00 0.00 0.01 0.01 0.01 0.01 0.00 0.00 0.00 0.00 0.00 0.00 0.00
0.02 0.02 0.01 0.01 0.02 0.02 0.03 0.05 0.06 0.05 0.04 0.04 0.02 0.02 0.02 0.01 0.02 0.01 0.01 0.00 0.00 0.00 0.00 0.01 0.00 0.00 0.01 0.02 0.02 0.02 0.01 0.01 0.01 0.01 0.01 0.01 0.01 0.01 0.00 0.00 0.00 0.00 0.00 0.00
0.02 0.02 0.01 0.01 0.01 0.03 0.03 0.04 0.05 0.04 0.03 0.02 0.02 0.02 0.01 0.01 0.01 0.01 0.01 0.01 0.00 0.00 0.00 0.01 0.01 0.01 0.01 0.02 0.01 0.01 0.01 0.01 0.01 0.01 0.01 0.02 0.01 0.01 0.00 0.00 0.00 0.00 0.00 0.00
0.02 0.02 0.01 0.01 0.01 0.02 0.03 0.04 0.04 0.04 0.03 0.03 0.02 0.01 0.01 0.01 0.01 0.01 0.01 0.01 0.00 0.00 0.00 0.00 0.01 0.01 0.01 0.01 0.01 0.01 0.01 0.00 0.00 0.01 0.01 0.01 0.01 0.01 0.00 0.00 0.00 0.00 0.00 0.00
0.02 0.03 0.02 0.02 0.02 0.02 0.03 0.03 0.03 0.04 0.03 0.02 0.01 0.01 0.01 0.01 0.01 0.00 0.00 0.01 0.01 0.00 0.00 0.00 0.00 0.01 0.01 0.01 0.01 0.01 0.00 0.00 0.00 0.00 0.00 0.00 0.00 0.00 0.00 0.00 0.00 0.00 0.00 0.00
0.03 0.03 0.03 0.02 0.02 0.02 0.02 0.03 0.02 0.03 0.02 0.02 0.01 0.01 0.00 0.00 0.00 0.00 0.00 0.00 0.00 0.00 0.00 0.00 0.00 0.01 0.01 0.01 0.00 0.01 0.00 0.00 0.00 0.00 0.00 0.00 0.00 0.00 0.00 0.00 0.00 0.00 0.00 0.00
0.02 0.03 0.03 0.02 0.01 0.02 0.01 0.01 0.01 0.02 0.02 0.01 0.01 0.01 0.00 0.00 0.00 0.00 0.00 0.00 0.00 0.00 0.00 0.00 0.00 0.01 0.01 0.01 0.01 0.01 0.00 0.00 0.00 0.00 0.00 0.00 0.00 0.01 0.00 0.00 0.00 0.00 0.00 0.00
0.01 0.02 0.02 0.03 0.03 0.02 0.01 0.01 0.01 0.01 0.01 0.01 0.01 0.00 0.00 0.01 0.01 0.01 0.00 0.00 0.01 0.01 0.01 0.00 0.00 0.00 0.01 0.01 0.01 0.01 0.01 0.00 0.00 0.00 0.00 0.00 0.00 0.00 0.00 0.00 0.00 0.00 0.00 0.00
0.02 0.02 0.01 0.01 0.02 0.01 0.01 0.01 0.00 0.01 0.01 0.01 0.00 0.00 0.00 0.01 0.01 0.01 0.01 0.02 0.01 0.01 0.01 0.01 0.00 0.00 0.00 0.00 0.01 0.01 0.01 0.00 0.00 0.00 0.00 0.01 0.01 0.00 0.00 0.00 0.00 0.00 0.00 0.00
0.02 0.02 0.01 0.00 0.00 0.01 0.01 0.01 0.00 0.00 0.00 0.00 0.00 0.00 0.00 0.00 0.00 0.01 0.02 0.02 0.02 0.01 0.01 0.00 0.00 0.00 0.00 0.00 0.00 0.01 0.01 0.00 0.00 0.00 0.00 0.01 0.01 0.00 0.00 0.00 0.00 0.00 0.00 0.00
0.03 0.03 0.02 0.01 0.00 0.00 0.01 0.00 0.00 0.00 0.00 0.00 0.00 0.00 0.00 0.00 0.00 0.01 0.03 0.01 0.01 0.01 0.01 0.01 0.00 0.00 0.00 0.00 0.00 0.00 0.00 0.00 0.00 0.01 0.00 0.00 0.00 0.00 0.00 0.00 0.00 0.00 0.00 0.00
0.03 0.04 0.03 0.02 0.01 0.01 0.01 0.00 0.00 0.00 0.00 0.00 0.00 0.00 0.00 0.00 0.00 0.01 0.03 0.01 0.01 0.01 0.01 0.01 0.01 0.00 0.00 0.00 0.00 0.00 0.00 0.00 0.01 0.01 0.00 0.00 0.00 0.00 0.00 0.00 0.00 0.00 0.00 0.00
0.01 0.03 0.04 0.04 0.02 0.01 0.00 0.00 0.00 0.00 0.00 0.00 0.00 0.00 0.00 0.00 0.00 0.00 0.01 0.01 0.00 0.00 0.01 0.01 0.01 0.00 0.00 0.00 0.00 0.00 0.00 0.00 0.00 0.00 0.00 0.00 0.00 0.00 0.00 0.00 0.00 0.00 0.00 0.00
0.01 0.02 0.04 0.04 0.03 0.01 0.00 0.00 0.00 0.00 0.00 0.00 0.00 0.00 0.00 0.00 0.00 0.00 0.00 0.01 0.01 0.01 0.01 0.00 0.00 0.00 0.00 0.00 0.00 0.00 0.00 0.00 0.00 0.00 0.00 0.00 0.00 0.00 0.00 0.00 0.00 0.00 0.00 0.00
0.01 0.01 0.03 0.03 0.02 0.02 0.01 0.00 0.00 0.00 0.00 0.00 0.01 0.00 0.00 0.00 0.00 0.00 0.00 0.00 0.00 0.00 0.01 0.00 0.00 0.00 0.00 0.00 0.00 0.00 0.00 0.00 0.00 0.00 0.00 0.00 0.00 0.00 0.00 0.00 0.00 0.00 0.00 0.00
0.01 0.01 0.02 0.03 0.02 0.02 0.01 0.00 0.00 0.00 0.00 0.00 0.00 0.00 0.00 0.00 0.00 0.00 0.00 0.00 0.00 0.00 0.00 0.00 0.00 0.00 0.00 0.00 0.00 0.00 0.00 0.00 0.00 0.00 0.00 0.00 0.00 0.00 0.00 0.00 0.00 0.00 0.00 0.00
0.02 0.01 0.01 0.01 0.02 0.01 0.01 0.01 0.00 0.00 0.00 0.00 0.00 0.00 0.00 0.00 0.00 0.00 0.00 0.00 0.00 0.00 0.00 0.00 0.00 0.00 0.01 0.01 0.00 0.00 0.00 0.00 0.00 0.00 0.00 0.00 0.00 0.00 0.00 0.00 0.00 0.00 0.00 0.00
0.02 0.02 0.01 0.01 0.01 0.01 0.01 0.01 0.01 0.00 0.00 0.00 0.00 0.00 0.00 0.00 0.00 0.00 0.00 0.00 0.00 0.00 0.00 0.00 0.00 0.00 0.00 0.00 0.00 0.00 0.00 0.00 0.00 0.00 0.00 0.00 0.00 0.00 0.00 0.00 0.00 0.00 0.00 0.00
0.01 0.02 0.02 0.01 0.01 0.01 0.00 0.01 0.01 0.00 0.00 0.00 0.00 0.00 0.00 0.00 0.00 0.00 0.00 0.00 0.00 0.00 0.00 0.00 0.00 0.00 0.00 0.00 0.00 0.00 0.00 0.00 0.00 0.00 0.00 0.00 0.00 0.00 0.00 0.00 0.00 0.00 0.00 0.00
0.02 0.02 0.02 0.02 0.01 0.01 0.01 0.01 0.00 0.00 0.00 0.00 0.00 0.00 0.00 0.00 0.00 0.00 0.00 0.00 0.00 0.00 0.00 0.00 0.00 0.00 0.00 0.00 0.00 0.00 0.00 0.00 0.00 0.00 0.00 0.00 0.00 0.00 0.00 0.00 0.00 0.00 0.00 0.00
0.02 0.03 0.02 0.01 0.01 0.01 0.01 0.01 0.00 0.00 0.00 0.00 0.00 0.00 0.00 0.00 0.00 0.00 0.00 0.00 0.00 0.00 0.00 0.00 0.00 0.00 0.00 0.00 0.00 0.00 0.00 0.00 0.00 0.00 0.00 0.00 0.00 0.00 0.00 0.00 0.00 0.00 0.01 0.00
MSLP
1013.33 1013.56 1013.85 1014.25 1014.81 1015.54 1016.41 1017.36 1018.28 1019.04 1019.55 1019.73 1019.55 1019.05 1018.31 1017.44 1016.57 1015.83 1015.29 1015.00 1014.95 1015.11 1015.40 1015.75 1016.10 1016.41 1016.67 1016.88 1017.07 1017.25 1017.45 1017.67 1017.90 1018.13 1018.33 1018.49 1018.58 1018.61 1018.58 1018.51 1018.41 1018.30 1018.18 1018.04
1013.71 1013.89 1014.11 1014.45 1014.95 1015.63 1016.47 1017.39 1018.29 1019.04 1019.53 1019.69 1019.48 1018.94 1018.14 1017.21 1016.29 1015.51 1014.94 1014.65 1014.62 1014.81 1015.16 1015.58 1016.01 1016.38 1016.70 1016.95 1017.16 1017.36 1017.56 1017.78 1018.02 1018.26 1018.47 1018.64 1018.74 1018.77 1018.74 1018.67 1018.57 1018.46 1018.34 1018.22
1014.03 1014.16 1014.33 1014.60 1015.03 1015.64 1016.42 1017.28 1018.12 1018.81 1019.25 1019.36 1019.10 1018.52 1017.69 1016.74 1015.81 1015.02 1014.47 1014.21 1014.23 1014.48 1014.90 1015.39 1015.87 1016.31 1016.67 1016.95 1017.18 1017.39 1017.60 1017.83 1018.07 1018.32 1018.53 1018.71 1018.82 1018.85 1018.83 1018.75 1018.65 1018.54 1018.44 1018.35
1014.29 1014.37 1014.48 1014.70 1015.07 1015.61 1016.31 1017.08 1017.83 1018.44 1018.80 1018.83 1018.52 1017.90 1017.05 1016.10 1015.18 1014.43 1013.93 1013.72 1013.80 1014.12 1014.60 1015.16 1015.70 1016.19 1016.58 1016.89 1017.14 1017.35 1017.57 1017.79 1018.04 1018.29 1018.51 1018.69 1018.81 1018.86 1018.83 1018.77 1018.67 1018.58 1018.50 1018.45
1014.47 1014.52 1014.60 1014.77 1015.09 1015.57 1016.18 1016.86 1017.51 1018.01 1018.26 1018.22 1017.84 1017.18 1016.32 1015.38 1014.50 1013.80 1013.36 1013.22 1013.37 1013.75 1014.30 1014.91 1015.50 1016.02 1016.44 1016.77 1017.03 1017.25 1017.46 1017.69 1017.93 1018.18 1018.42 1018.61 1018.74 1018.80 1018.80 1018.74 1018.67 1018.59 1018.54 1018.52
1014.57 1014.59 1014.65 1014.81 1015.09 1015.52 1016.06 1016.66 1017.20 1017.59 1017.74 1017.60 1017.17 1016.47 1015.61 1014.69 1013.85 1013.21 1012.83 1012.76 1012.97 1013.41 1014.01 1014.66 1015.29 1015.83 1016.28 1016.62 1016.88 1017.10 1017.31 1017.54 1017.78 1018.04 1018.28 1018.49 1018.64 1018.72 1018.73 1018.70 1018.65 1018.60 1018.57 1018.58
1014.58 1014.60 1014.65 1014.81 1015.08 1015.48 1015.97 1016.48 1016.93 1017.22 1017.28 1017.06 1016.56 1015.84 1014.97 1014.08 1013.29 1012.70 1012.38 1012.37 1012.63 1013.12 1013.75 1014.43 1015.09 1015.65 1016.11 1016.46 1016.73 1016.95 1017.15 1017.38 1017.62 1017.88 1018.13 1018.35 1018.52 1018.63 1018.67 1018.66 1018.63 1018.60 1018.59 1018.62
1014.50 1014.52 1014.59 1014.76 1015.04 1015.42 1015.88 1016.33 1016.70 1016.90 1016.87 1016.59 1016.04 1015.30 1014.44 1013.58 1012.83 1012.30 1012.03 1012.07 1012.37 1012.89 1013.55 1014.25 1014.92 1015.50 1015.97 1016.33 1016.60 1016.82 1017.03 1017.25 1017.49 1017.75 1018.00 1018.24 1018.42 1018.55 1018.61 1018.63 1018.62 1018.60 1018.61 1018.65
1014.32 1014.35 1014.45 1014.64 1014.94 1015.33 1015.76 1016.16 1016.47 1016.60 1016.51 1016.16 1015.59 1014.84 1014.00 1013.17 1012.47 1011.99 1011.77 1011.84 1012.18 1012.72 1013.39 1014.10 1014.78 1015.38 1015.86 1016.24 1016.52 1016.75 1016.96 1017.18 1017.42 1017.67 1017.92 1018.16 1018.36 1018.50 1018.58 1018.62 1018.62 1018.62 1018.63 1018.67
1014.05 1014.10 1014.24 1014.47 1014.80 1015.18 1015.59 1015.95 1016.20 1016.27 1016.13 1015.75 1015.16 1014.41 1013.60 1012.81 1012.16 1011.73 1011.55 1011.66 1012.01 1012.57 1013.25 1013.97 1014.66 1015.28 1015.78 1016.18 1016.49 1016.74 1016.96 1017.17 1017.41 1017.65 1017.90 1018.13 1018.33 1018.49 1018.58 1018.63 1018.65 1018.66 1018.67 1018.71
1013.71 1013.81 1013.99 1014.25 1014.59 1014.97 1015.36 1015.67 1015.86 1015.88 1015.69 1015.28 1014.68 1013.95 1013.18 1012.44 1011.85 1011.46 1011.32 1011.45 1011.82 1012.39 1013.07 1013.81 1014.52 1015.16 1015.70 1016.13 1016.47 1016.75 1016.99 1017.22 1017.45 1017.69 1017.93 1018.16 1018.36 1018.52 1018.63 1018.70 1018.73 1018.75 1018.77 1018.80
1013.36 1013.50 1013.72 1014.02 1014.36 1014.72 1015.06 1015.31 1015.44 1015.39 1015.15 1014.72 1014.12 1013.42 1012.69 1012.01 1011.46 1011.12 1011.02 1011.17 1011.56 1012.12 1012.81 1013.56 1014.29 1014.96 1015.55 1016.03 1016.43 1016.75 1017.02 1017.27 1017.52 1017.76 1018.00 1018.23 1018.44 1018.60 1018.73 1018.82 1018.88 1018.92 1018.95 1018.99
1013.03 1013.23 1013.49 1013.79 1014.12 1014.44 1014.71 1014.89 1014.93 1014.82 1014.52 1014.06 1013.47 1012.79 1012.10 1011.47 1010.98 1010.68 1010.61 1010.78 1011.17 1011.74 1012.43 1013.19 1013.94 1014.65 1015.29 1015.83 1016.29 1016.67 1017.00 1017.29 1017.57 1017.83 1018.08 1018.32 1018.54 1018.73 1018.88 1019.01 1019.10 1019.17 1019.24 1019.31
1012.77 1013.02 1013.30 1013.60 1013.89 1014.14 1014.33 1014.41 1014.36 1014.16 1013.81 1013.32 1012.72 1012.06 1011.41 1010.83 1010.39 1010.13 1010.09 1010.27 1010.66 1011.22 1011.91 1012.66 1013.44 1014.19 1014.87 1015.49 1016.02 1016.47 1016.87 1017.23 1017.55 1017.85 1018.14 1018.41 1018.66 1018.88 1019.07 1019.24 1019.38 1019.51 1019.62 1019.73
1012.59 1012.88 1013.16 1013.43 1013.67 1013.84 1013.92 1013.90 1013.75 1013.46 1013.04 1012.52 1011.91 1011.28 1010.66 1010.13 1009.73 1009.50 1009.48 1009.66 1010.03 1010.57 1011.25 1012.00 1012.78 1013.56 1014.29 1014.97 1015.58 1016.12 1016.60 1017.03 1017.43 1017.79 1018.13 1018.45 1018.75 1019.02 1019.27 1019.50 1019.70 1019.89 1020.05 1020.22
1012.49 1012.79 1013.06 1013.29 1013.45 1013.52 1013.50 1013.37 1013.11 1012.74 1012.27 1011.71 1011.11 1010.49 1009.91 1009.42 1009.05 1008.85 1008.83 1008.99 1009.34 1009.86 1010.50 1011.22 1012.00 1012.79 1013.57 1014.30 1014.98 1015.61 1016.18 1016.70 1017.17 1017.62 1018.03 1018.42 1018.78 1019.12 1019.43 1019.72 1019.99 1020.24 1020.47 1020.68
1012.43 1012.72 1012.95 1013.12 1013.20 1013.19 1013.06 1012.83 1012.49 1012.05 1011.53 1010.95 1010.35 1009.76 1009.22 1008.76 1008.42 1008.24 1008.21 1008.36 1008.67 1009.13 1009.72 1010.41 1011.16 1011.95 1012.74 1013.51 1014.25 1014.95 1015.60 1016.21 1016.78 1017.31 1017.80 1018.27 1018.70 1019.11 1019.49 1019.85 1020.17 1020.48 1020.77 1021.03
1012.37 1012.62 1012.81 1012.91 1012.92 1012.82 1012.61 1012.30 1011.90 1011.41 1010.87 1010.30 1009.72 1009.16 1008.66 1008.24 1007.92 1007.74 1007.70 1007.82 1008.08 1008.48 1009.00 1009.63 1010.33 1011.09 1011.87 1012.65 1013.43 1014.19 1014.91 1015.60 1016.25 1016.86 1017.44 1017.98 1018.48 1018.95 1019.40 1019.81 1020.19 1020.54 1020.86 1021.16
1012.27 1012.48 1012.61 1012.65 1012.60 1012.44 1012.17 1011.82 1011.38 1010.89 1010.36 1009.80 1009.26 1008.74 1008.28 1007.89 1007.60 1007.42 1007.36 1007.43 1007.63 1007.96 1008.40 1008.95 1009.58 1010.28 1011.03 1011.80 1012.59 1013.37 1014.14 1014.89 1015.60 1016.28 1016.93 1017.53 1018.10 1018.62 1019.11 1019.56 1019.98 1020.36 1020.71 1021.03
1012.16 1012.31 1012.40 1012.39 1012.29 1012.10 1011.81 1011.44 1011.01 1010.53 1010.02 1009.51 1009.00 1008.53 1008.11 1007.75 1007.47 1007.28 1007.20 1007.22 1007.35 1007.60 1007.96 1008.41 1008.96 1009.58 1010.27 1011.00 1011.77 1012.55 1013.33 1014.11 1014.87 1015.59 1016.28 1016.94 1017.54 1018.11 1018.63 1019.11 1019.54 1019.95 1020.31 1020.64
1012.05 1012.17 1012.23 1012.20 1012.08 1011.88 1011.60 1011.24 1010.83 1010.38 1009.92 1009.44 1008.98 1008.55 1008.15 1007.81 1007.53 1007.33 1007.20 1007.17 1007.23 1007.39 1007.65 1008.01 1008.46 1009.00 1009.61 1010.28 1011.00 1011.75 1012.53 1013.30 1014.07 1014.82 1015.53 1016.21 1016.85 1017.43 1017.97 1018.46 1018.91 1019.32 1019.70 1020.04
1012.04 1012.15 1012.20 1012.17 1012.06 1011.87 1011.61 1011.29 1010.91 1010.50 1010.06 1009.62 1009.19 1008.78 1008.39 1008.04 1007.75 1007.51 1007.34 1007.24 1007.22 1007.30 1007.46 1007.72 1008.08 1008.52 1009.04 1009.63 1010.29 1010.99 1011.73 1012.49 1013.24 1013.99 1014.71 1015.40 1016.04 1016.63 1017.18 1017.68 1018.13 1018.55 1018.94 1019.30
1012.20 1012.33 1012.40 1012.39 1012.31 1012.15 1011.92 1011.62 1011.27 1010.88 1010.47 1010.04 1009.61 1009.19 1008.78 1008.40 1008.06 1007.77 1007.54 1007.37 1007.27 1007.26 1007.33 1007.49 1007.75 1008.10 1008.53 1009.05 1009.63 1010.27 1010.96 1011.67 1012.40 1013.13 1013.84 1014.52 1015.16 1015.75 1016.30 1016.81 1017.27 1017.70 1018.10 1018.48
1012.60 1012.78 1012.89 1012.92 1012.87 1012.74 1012.53 1012.25 1011.91 1011.52 1011.10 1010.65 1010.19 1009.72 1009.27 1008.83 1008.42 1008.06 1007.74 1007.49 1007.31 1007.21 1007.20 1007.27 1007.44 1007.70 1008.05 1008.48 1008.99 1009.56 1010.19 1010.86 1011.55 1012.24 1012.93 1013.60 1014.23 1014.83 1015.38 1015.89 1016.37 1016.81 1017.24 1017.65
1013.28 1013.52 1013.68 1013.75 1013.73 1013.61 1013.41 1013.13 1012.77 1012.35 1011.89 1011.39 1010.86 1010.32 1009.79 1009.26 1008.77 1008.32 1007.92 1007.58 1007.31 1007.12 1007.02 1007.02 1007.11 1007.28 1007.55 1007.91 1008.35 1008.85 1009.42 1010.04 1010.68 1011.34 1012.01 1012.66 1013.28 1013.87 1014.43 1014.95 1015.44 1015.91 1016.36 1016.79
1014.21 1014.51 1014.71 1014.81 1014.80 1014.68 1014.46 1014.14 1013.74 1013.27 1012.74 1012.16 1011.55 1010.92 1010.29 1009.67 1009.08 1008.53 1008.04 1007.61 1007.26 1006.99 1006.81 1006.73 1006.74 1006.84 1007.04 1007.32 1007.69 1008.13 1008.64 1009.20 1009.80 1010.42 1011.05 1011.68 1012.29 1012.88 1013.44 1013.97 1014.47 1014.95 1015.42 1015.88
Thickness
5695 5692 5688 5691 5696 5698 5699 5697 5695 5699 5707 5707 5705 5707 5714 5721 5724 5726 5728 5730 5733 5736 5739 5741 5741 5741 5741 5740 5740 5739 5738 5737 5735 5733 5731 5728 5727 5727 5726 5724 5722 5721 5720 5720
5686 5684 5692 5696 5696 5696 5695 5692 5693 5697 5704 5705 5704 5705 5715 5720 5722 5726 5729 5730 5733 5734 5736 5736 5738 5739 5739 5738 5738 5738 5736 5735 5734 5731 5731 5728 5726 5726 5724 5722 5720 5720 5719 5717
5684 5689 5694 5692 5689 5689 5691 5692 5694 5694 5698 5704 5702 5700 5710 5719 5723 5726 5729 5733 5735 5735 5735 5735 5735 5736 5736 5736 5736 5736 5735 5734 5732 5730 5729 5726 5724 5723 5722 5721 5719 5718 5717 5716
5687 5692 5690 5689 5689 5691 5686 5698 5697 5694 5693 5692 5699 5691 5707 5716 5718 5722 5726 5730 5733 5735 5735 5735 5735 5735 5735 5735 5736 5736 5734 5734 5732 5730 5728 5726 5723 5721 5721 5720 5719 5717 5716 5714
5686 5690 5689 5687 5692 5695 5694 5700 5698 5696 5692 5691 5699 5697 5707 5716 5715 5721 5727 5731 5734 5735 5735 5734 5735 5734 5735 5735 5734 5734 5733 5732 5730 5730 5726 5725 5724 5723 5721 5720 5718 5717 5716 5714
5690 5696 5696 5694 5698 5699 5698 5695 5694 5696 5694 5684 5698 5698 5702 5718 5722 5726 5729 5733 5734 5735 5735 5734 5734 5734 5733 5732 5731 5730 5729 5728 5727 5726 5725 5724 5722 5720 5719 5717 5717 5716 5716 5714
5684 5690 5696 5699 5692 5693 5694 5685 5676 5676 5680 5688 5703 5700 5709 5727 5732 5733 5733 5734 5736 5736 5735 5733 5731 5730 5729 5728 5728 5728 5727 5725 5725 5725 5724 5723 5722 5720 5719 5718 5716 5715 5715 5714
5679 5680 5693 5698 5697 5693 5693 5692 5682 5677 5681 5692 5698 5700 5717 5728 5732 5735 5737 5736 5735 5735 5735 5733 5732 5730 5728 5727 5727 5726 5725 5724 5723 5723 5723 5722 5721 5720 5719 5717 5716 5715 5714 5713
5685 5684 5698 5701 5704 5701 5692 5693 5701 5695 5693 5691 5700 5709 5719 5725 5726 5729 5732 5732 5733 5734 5733 5732 5731 5729 5728 5727 5726 5725 5724 5723 5722 5722 5721 5720 5720 5718 5717 5716 5715 5714 5713 5711
5697 5686 5693 5697 5699 5699 5702 5702 5695 5690 5683 5685 5696 5705 5714 5719 5722 5727 5729 5731 5733 5733 5732 5731 5729 5728 5728 5726 5725 5724 5723 5722 5721 5720 5719 5717 5717 5716 5715 5715 5713 5712 5712 5710
5698 5690 5687 5691 5692 5695 5695 5696 5698 5696 5696 5691 5691 5707 5731 5729 5730 5729 5732 5734 5734 5732 5730 5729 5728 5727 5726 5724 5722 5720 5720 5720 5718 5718 5717 5715 5714 5713 5713 5712 5710 5710 5709 5708
5699 5696 5689 5694 5704 5708 5706 5706 5702 5691 5693 5698 5699 5709 5732 5733 5734 5734 5734 5734 5733 5731 5729 5728 5727 5725 5723 5721 5720 5719 5719 5718 5716 5715 5715 5713 5712 5711 5710 5709 5708 5708 5707 5706
5697 5694 5685 5684 5689 5698 5700 5705 5707 5706 5702 5699 5698 5708 5728 5731 5731 5733 5733 5732 5730 5728 5726 5725 5723 5722 5720 5719 5718 5717 5716 5715 5714 5712 5711 5710 5709 5708 5707 5706 5705 5704 5704 5702
5701 5698 5694 5688 5696 5702 5700 5702 5705 5704 5700 5703 5708 5714 5723 5725 5726 5728 5729 5729 5728 5726 5724 5723 5720 5719 5717 5717 5715 5714 5713 5713 5710 5708 5708 5707 5706 5704 5703 5702 5700 5700 5699 5698
5699 5696 5701 5704 5708 5706 5705 5705 5705 5706 5711 5710 5716 5718 5724 5728 5728 5728 5727 5726 5724 5722 5722 5721 5719 5717 5715 5714 5713 5712 5710 5709 5707 5705 5704 5703 5702 5700 5698 5696 5695 5694 5693 5692
5698 5695 5699 5700 5705 5706 5704 5707 5708 5708 5712 5714 5716 5719 5734 5735 5732 5728 5727 5724 5722 5721 5721 5720 5719 5717 5715 5713 5712 5710 5707 5706 5704 5702 5700 5698 5696 5694 5692 5691 5690 5688 5687 5686
5696 5695 5693 5696 5703 5701 5699 5713 5713 5714 5719 5719 5716 5726 5732 5728 5727 5727 5727 5725 5724 5724 5722 5720 5719 5717 5716 5715 5712 5707 5706 5703 5701 5698 5696 5693 5691 5689 5688 5686 5685 5682 5681 5680
5696 5693 5693 5694 5694 5682 5714 5728 5724 5720 5724 5728 5730 5732 5732 5732 5732 5732 5732 5729 5726 5725 5722 5721 5719 5716 5715 5713 5710 5706 5702 5700 5697 5694 5692 5689 5687 5685 5683 5681 5679 5678 5678 5675
5698 5692 5688 5689 5688 5697 5714 5721 5721 5718 5721 5732 5730 5731 5732 5731 5727 5728 5732 5732 5730 5727 5724 5721 5719 5716 5713 5710 5707 5702 5698 5696 5693 5690 5688 5686 5684 5681 5679 5677 5675 5674 5672 5670
5687 5691 5688 5685 5682 5685 5710 5723 5728 5722 5716 5732 5732 5729 5728 5726 5721 5728 5732 5730 5727 5724 5721 5718 5715 5712 5709 5706 5703 5699 5695 5692 5689 5687 5686 5684 5681 5678 5675 5673 5671 5669 5667 5665
5678 5679 5681 5683 5683 5697 5715 5717 5719 5705 5717 5731 5732 5732 5730 5730 5735 5736 5732 5727 5723 5720 5717 5714 5711 5707 5705 5702 5699 5695 5692 5689 5687 5684 5681 5678 5676 5673 5671 5668 5666 5664 5662 5660
5684 5681 5682 5684 5680 5690 5710 5710 5711 5719 5727 5728 5730 5731 5730 5731 5729 5728 5725 5721 5718 5714 5711 5709 5705 5702 5699 5697 5694 5691 5688 5686 5681 5678 5675 5673 5671 5669 5666 5662 5660 5659 5657 5654
5682 5687 5690 5691 5694 5701 5705 5709 5714 5717 5720 5723 5725 5727 5726 5723 5721 5720 5718 5715 5712 5709 5706 5704 5700 5696 5693 5692 5690 5686 5683 5679 5675 5672 5669 5667 5665 5662 5660 5658 5655 5653 5651 5649
5679 5679 5682 5686 5695 5698 5700 5705 5707 5711 5713 5717 5721 5722 5721 5718 5717 5714 5712 5709 5706 5703 5700 5698 5695 5691 5688 5685 5683 5681 5677 5673 5670 5667 5664 5662 5660 5657 5655 5651 5650 5647 5645 5643
5671 5672 5676 5681 5689 5691 5695 5697 5701 5704 5708 5711 5714 5715 5714 5713 5710 5709 5707 5704 5701 5698 5695 5693 5691 5686 5682 5679 5676 5674 5671 5668 5665 5662 5659 5656 5653 5651 5647 5644 5641 5640 5637 5635
5667 5668 5670 5676 5683 5685 5687 5691 5694 5696 5699 5702 5704 5705 5706 5706 5704 5703 5700 5697 5695 5692 5690 5687 5683 5679 5676 5673 5670 5667 5665 5662 5660 5657 5653 5649 5646 5642 5640 5637 5632 5627 5625 5622